Weather History for Roseau, MN

Change the Weather History Date:

Saturday, November 17, 2012

  Actual Average Record
Temperature  
Mean Temperature 34 °F -  
Max Temperature 39 °F 32 °F 66 °F (1953)
Min Temperature 28 °F 19 °F -11 °F (1959)
Degree Days  
Heating Degree Days 32    
Moisture  
Dew Point 27 °F    
Average Humidity 77    
Maximum Humidity 87    
Minimum Humidity 60    
Precipitation  
Precipitation 0.00 in - - ()
Sea Level Pressure  
Sea Level Pressure 30.07 in    
Wind  
Wind Speed 6 mph (SSE)    
Max Wind Speed 12 mph    
Max Gust Speed -    
Visibility 9 miles    
Events      
Averages and records for this station are not official NWS values.
T = Trace of Precipitation, MM = Missing Value Source: NWS Daily Summary

Daily Weather History Graph

Daily Weather History Graph

Search for Another Location

Airport:

Trip Planner

Search our weather history database for the weather conditions in past years. The results will help you decide how hot, cold, wet, or windy it might be!

Date:

Astronomy

Nov. 17, 2012 Rise Set
Actual Time 7:35 AM CST 4:39 PM CST
Civil Twilight 7:00 AM CST 5:14 PM CST
Nautical Twilight 6:22 AM CST 5:52 PM CST
Astronomical Twilight 5:44 AM CST 6:30 PM CST
Moon 11:21 AM CST (11/17) 8:52 PM CST (11/17)
Length of Visible Light 10h 13m
Length of Day
9h 03m
Waxing Crescent, 20% of the Moon is Illuminated
Nov 17
Waxing Crescent
Nov 20
First Quarter
Nov 28
Full
Dec 6
Last Quarter
Dec 13
New

Hourly Weather History & Observations

Time (CST) Temp. Windchill Dew Point Humidity Pressure Visibility Wind Dir Wind Speed Gust Speed Precip Events Conditions
12:14 AM 32.0 °F 23.0 °F 19.4 °F 60% 30.09 in 10.0 mi South 11.5 mph - N/A   Clear
12:34 AM 32.0 °F 23.0 °F 21.2 °F 64% 30.09 in 10.0 mi South 11.5 mph - N/A   Clear
12:54 AM 33.8 °F 25.8 °F 21.2 °F 60% 30.08 in 10.0 mi South 10.4 mph - N/A   Clear
1:14 AM 32.0 °F 23.6 °F 21.2 °F 64% 30.07 in 10.0 mi SSE 10.4 mph - N/A   Clear
1:34 AM 32.0 °F 23.6 °F 21.2 °F 64% 30.07 in 10.0 mi South 10.4 mph - N/A   Clear
1:54 AM 32.0 °F 25.6 °F 21.2 °F 64% 30.07 in 10.0 mi SSE 6.9 mph - N/A   Clear
2:14 AM 32.0 °F 24.8 °F 23.0 °F 69% 30.07 in 10.0 mi SSE 8.1 mph - N/A   Clear
2:34 AM 32.0 °F 25.6 °F 23.0 °F 69% 30.07 in 10.0 mi SSE 6.9 mph - N/A   Clear
2:54 AM 32.0 °F 25.6 °F 23.0 °F 69% 30.06 in 10.0 mi SSE 6.9 mph - N/A   Clear
3:14 AM 30.2 °F 23.4 °F 23.0 °F 75% 30.06 in 10.0 mi SSE 6.9 mph - N/A   Clear
3:34 AM 30.2 °F 26.7 °F 23.0 °F 75% 30.05 in 10.0 mi SSE 3.5 mph - N/A   Clear
3:54 AM 30.2 °F 24.3 °F 23.0 °F 75% 30.05 in 10.0 mi SSE 5.8 mph - N/A   Clear
4:14 AM 30.2 °F 24.3 °F 21.2 °F 69% 30.05 in 10.0 mi SSE 5.8 mph - N/A   Clear
4:34 AM 30.2 °F 23.4 °F 21.2 °F 69% 30.05 in 10.0 mi SSE 6.9 mph - N/A   Clear
4:54 AM 28.4 °F 22.2 °F 21.2 °F 74% 30.05 in 10.0 mi SSE 5.8 mph - N/A   Clear
5:14 AM 28.4 °F 23.3 °F 21.2 °F 74% 30.05 in 10.0 mi SSE 4.6 mph - N/A   Clear
5:34 AM 28.4 °F 22.2 °F 21.2 °F 74% 30.05 in 10.0 mi SSE 5.8 mph - N/A   Clear
5:54 AM 28.4 °F 21.2 °F 21.2 °F 74% 30.04 in 10.0 mi SSE 6.9 mph - N/A   Clear
6:14 AM 28.4 °F 21.2 °F 23.0 °F 80% 30.04 in 10.0 mi South 6.9 mph - N/A   Clear
6:34 AM 30.2 °F 24.3 °F 23.0 °F 75% 30.04 in 10.0 mi SSE 5.8 mph - N/A   Clear
6:54 AM 30.2 °F 24.3 °F 24.8 °F 80% 30.04 in 10.0 mi SSE 5.8 mph - N/A   Clear
7:14 AM 30.2 °F 25.4 °F 23.0 °F 75% 30.05 in 10.0 mi SSE 4.6 mph - N/A   Clear
7:34 AM 28.4 °F 23.3 °F 23.0 °F 80% 30.05 in 10.0 mi SSE 4.6 mph - N/A   Clear
7:54 AM 28.4 °F 23.3 °F 23.0 °F 80% 30.05 in 10.0 mi SSE 4.6 mph - N/A   Clear
8:14 AM 30.2 °F - 24.8 °F 80% 30.06 in 10.0 mi Calm Calm - N/A   Clear
8:34 AM 30.2 °F 26.7 °F 24.8 °F 80% 30.06 in 10.0 mi SSE 3.5 mph - N/A   Clear
8:54 AM 30.2 °F 26.7 °F 24.8 °F 80% 30.08 in 10.0 mi South 3.5 mph - N/A   Clear
9:14 AM 30.2 °F - 24.8 °F 80% 30.09 in 10.0 mi Calm Calm - N/A   Clear
9:34 AM 33.8 °F 30.8 °F 26.6 °F 75% 30.08 in 10.0 mi SSE 3.5 mph - N/A   Clear
9:54 AM 35.6 °F 30.7 °F 28.4 °F 75% 30.08 in 10.0 mi South 5.8 mph - N/A   Clear
10:14 AM 35.6 °F 31.7 °F 28.4 °F 75% 30.09 in 10.0 mi South 4.6 mph - N/A   Clear
10:35 AM 35.6 °F 31.7 °F 30.2 °F 81% 30.09 in 10.0 mi South 4.6 mph - N/A   Clear
10:54 AM 35.6 °F 31.7 °F 30.2 °F 81% 30.09 in 10.0 mi South 4.6 mph - N/A   Clear
11:14 AM 37.4 °F 33.8 °F 30.2 °F 75% 30.09 in 10.0 mi SSW 4.6 mph - N/A   Clear
11:34 AM 37.4 °F 33.8 °F 30.2 °F 75% 30.09 in 10.0 mi SSW 4.6 mph - N/A   Clear
11:54 AM 37.4 °F 33.8 °F 30.2 °F 75% 30.09 in 10.0 mi SW 4.6 mph - N/A   Clear
12:15 PM 37.4 °F 34.9 °F 30.2 °F 75% 30.09 in 10.0 mi SSW 3.5 mph - N/A   Clear
12:34 PM 37.4 °F 33.8 °F 30.2 °F 75% 30.08 in 10.0 mi South 4.6 mph - N/A   Clear
12:54 PM 37.4 °F 34.9 °F 30.2 °F 75% 30.07 in 10.0 mi SSE 3.5 mph - N/A   Clear
1:15 PM 37.4 °F 34.9 °F 32.0 °F 81% 30.08 in 10.0 mi South 3.5 mph - N/A   Clear
1:34 PM 39.2 °F 35.0 °F 32.0 °F 75% 30.08 in 10.0 mi South 5.8 mph - N/A   Clear
1:54 PM 39.2 °F 34.2 °F 32.0 °F 75% 30.07 in 10.0 mi South 6.9 mph - N/A   Clear
2:15 PM 39.2 °F 35.9 °F 33.8 °F 81% 30.07 in 10.0 mi South 4.6 mph - N/A   Scattered Clouds
2:34 PM 39.2 °F 37.0 °F 33.8 °F 81% 30.07 in 10.0 mi South 3.5 mph - N/A   Scattered Clouds
2:54 PM 39.2 °F 35.9 °F 33.8 °F 81% 30.07 in 10.0 mi South 4.6 mph - N/A   Clear
3:15 PM 39.2 °F 35.9 °F 33.8 °F 81% 30.08 in 10.0 mi SSW 4.6 mph - N/A   Clear
3:34 PM 39.2 °F - 33.8 °F 81% 30.08 in 10.0 mi Calm Calm - N/A   Clear
3:54 PM 37.4 °F - 32.0 °F 81% 30.08 in 10.0 mi Calm Calm - N/A   Clear
4:15 PM 37.4 °F - 33.8 °F 87% 30.08 in 10.0 mi Calm Calm - N/A   Clear
4:34 PM 37.4 °F - 32.0 °F 81% 30.08 in 10.0 mi Calm Calm - N/A   Clear
4:54 PM 35.6 °F - 30.2 °F 81% 30.08 in 10.0 mi Calm Calm - N/A   Clear
5:15 PM 35.6 °F - 30.2 °F 81% 30.08 in 10.0 mi Calm Calm - N/A   Clear
5:34 PM 35.6 °F - 30.2 °F 81% 30.08 in 10.0 mi Calm Calm - N/A   Clear
6:14 PM 35.6 °F - 30.2 °F 81% 30.09 in 7.0 mi Calm Calm - N/A   Clear
6:34 PM 35.6 °F - 30.2 °F 81% 30.09 in 7.0 mi Calm Calm - N/A   Clear
6:55 PM 33.8 °F - 28.4 °F 81% 30.09 in 7.0 mi Calm Calm - N/A   Scattered Clouds
7:14 PM 33.8 °F - 28.4 °F 81% 30.08 in 7.0 mi Calm Calm - N/A   Scattered Clouds
7:34 PM 35.6 °F - 30.2 °F 81% 30.08 in 7.0 mi Calm Calm - N/A   Clear
7:55 PM 33.8 °F - 28.4 °F 81% 30.08 in 7.0 mi Calm Calm - N/A   Clear
8:14 PM 33.8 °F - 28.4 °F 81% 30.08 in 7.0 mi Calm Calm - N/A   Clear
8:34 PM 33.8 °F - 28.4 °F 81% 30.08 in 7.0 mi Calm Calm - N/A   Clear
8:55 PM 35.6 °F - 30.2 °F 81% 30.08 in 10.0 mi Calm Calm - N/A   Clear
9:14 PM 33.8 °F - 30.2 °F 87% 30.08 in 7.0 mi Calm Calm - N/A   Clear
9:34 PM 33.8 °F - 28.4 °F 81% 30.07 in 7.0 mi Calm Calm - N/A   Clear
9:55 PM 33.8 °F 30.8 °F 28.4 °F 81% 30.07 in 7.0 mi East 3.5 mph - N/A   Clear
10:14 PM 35.6 °F - 30.2 °F 81% 30.06 in 10.0 mi Calm Calm - N/A   Scattered Clouds
10:34 PM 33.8 °F 30.8 °F 28.4 °F 81% 30.06 in 7.0 mi NE 3.5 mph - N/A   Scattered Clouds
10:55 PM 33.8 °F - 28.4 °F 81% 30.06 in 7.0 mi Calm Calm - N/A   Clear
11:14 PM 32.0 °F 28.7 °F 26.6 °F 80% 30.06 in 7.0 mi NE 3.5 mph - N/A   Clear
11:34 PM 32.0 °F - 26.6 °F 80% 30.06 in 7.0 mi Calm Calm - N/A   Clear
11:54 PM 32.0 °F 28.7 °F 26.6 °F 80% 30.05 in 7.0 mi ENE 3.5 mph - N/A   Clear